Location: Gr�ce
(47.4874°N, 1.9275°W)
Time: 12:36:02
(UTC+00:00)

Daily predictions for brighter satellites

Satellite Brightness Start Highest point End
(mag) Time Altitude Azimuth Time Altitude Azimuth Time Altitude Azimuth
Sich 1 4.1 20:00:36 10° SSE 20:04:23 28° E 20:08:11 10° NNE
SJ-6B 3.3 20:01:57 10° S 20:06:00 68° WSW 20:10:01 10° NNW
Cosmos 1818 4.0 20:01:21 10° NNW 20:06:44 54° NE 20:12:04 10° SE
Meteor 2-6 Rocket 4.2 20:01:22 10° N 20:06:52 69° ENE 20:12:28 10° SSE
BREEZE-M DEB (TANK) 2.3 20:02:23 10° WSW 20:06:55 78° NNW 20:08:59 10° ENE
SL-8 Rocket 4.4 20:02:07 10° SSW 20:08:16 71° W 20:14:31 10° N
Cosmos 2082 Rocket 3.5 20:04:56 10° SE 20:08:57 20° E 20:13:00 10° NE
Cosmos 1500 Rocket 3.6 20:10:09 10° S 20:14:27 87° W 20:18:49 10° N
Ariane Rocket 4.0 20:13:27 10° S 20:18:18 47° W 20:23:13 10° NNW
Cosmos 2322 Rocket 4.4 20:15:58 10° N 20:18:31 13° NNE 20:21:04 10° ENE
USA 186 3.9 20:18:02 10° SW 20:19:40 17° W 20:21:17 10° NW
Resurs 1-3 3.6 20:15:21 10° SSE 20:19:44 86° ENE 20:24:10 10° NNW
Meteor 1-4 Rocket 4.0 20:17:22 10° NNE 20:20:03 20° ENE 20:22:26 11° ESE
SL-08 R/B 4.5 20:16:33 10° S 20:22:47 81° E 20:28:58 10° N
CZ-2C R/B 2.7 20:19:18 10° NNE 20:24:29 80° WNW 20:29:40 10° SSW
SL-8 R/B 4.2 20:19:48 10° WNW 20:24:29 52° SSW 20:28:49 12° SE
Terra 3.9 20:22:12 10° E 20:24:34 14° ENE 20:26:56 10° NNE
Cosmos 407 Rocket 4.0 20:19:41 10° S 20:24:35 39° ESE 20:29:28 10° NE
USA 234 3.6 20:19:22 10° ESE 20:25:47 61° NNE 20:32:13 10° NW
Cosmos 1666 Rocket 4.4 20:22:11 10° SSE 20:25:57 30° E 20:29:45 10° NNE
Meteor 1-27 Rocket 4.0 20:25:05 10° N 20:30:55 58° ENE 20:36:47 10° SSE
MetOp-B 4.4 20:25:56 10° SE 20:31:07 54° ENE 20:36:21 10° N
Meteor 1-10 Rocket 4.3 20:25:49 10° N 20:31:30 89° ENE 20:37:16 10° S
Cosmos 1782 4.5 20:29:10 10° NNW 20:32:49 35° W 20:36:30 10° SSW
ERBS 3.8 20:32:47 10° W 20:35:56 38° NNW 20:39:05 10° NE
BREEZE-M DEB (TANK) 3.8 20:31:28 10° WNW 20:36:32 28° SW 20:39:00 11° SSE
Cosmos 1805 Rocket 3.5 20:33:09 10° S 20:37:34 81° E 20:42:03 10° NNE
SPOT 5 4.2 20:35:54 12° ESE 20:38:38 20° ENE 20:41:51 10° NNE
Cosmos 1980 Rocket 2.8 20:37:17 10° NNW 20:42:45 45° NE 20:47:05 16° ESE
SPOT 1/Viking Rocket 4.1 20:39:53 14° SE 20:44:02 44° ENE 20:48:59 10° N
SL-4 R/B 2.3 20:42:54 10° SSW 20:46:36 37° SE 20:50:03 10° ENE
BREEZE-M DEB (TANK) 2.2 20:45:06 10° WSW 20:47:37 84° NNW 20:53:28 10° ENE
Genesis I 4.1 20:44:31 10° NNW 20:48:09 37° NE 20:50:44 17° ESE
Cosmos 972 4.5 20:42:56 10° NNW 20:48:12 84° WSW 20:52:44 12° SSE
Cosmos 405 Rocket 4.5 20:49:21 14° E 20:49:47 14° E 20:51:50 10° NE
Cosmos 1140 Rocket 3.7 20:45:09 10° S 20:50:11 49° ESE 20:55:15 10° NNE
ATLAS 5 CENTAUR R/B 3.0 20:45:38 10° NW 20:51:12 53° WSW 20:57:17 12° SSE
Cosmos 389 Rocket 3.4 20:51:16 10° NNW 20:54:34 45° W 20:57:52 10° S
Cosmos 1812 3.4 20:53:54 10° NNW 20:57:40 54° W 21:01:25 10° S
Cosmos 1697 Rocket 2.7 20:52:57 10° NNW 20:58:36 83° WSW 21:03:04 17° SSE
Cosmos 1633 Rocket 3.2 20:55:05 12° S 20:59:08 56° E 21:03:28 10° NNE
Cosmos 1833 Rocket 2.6 20:53:35 10° SSW 20:59:11 79° ESE 21:04:50 10° NNE
Cosmos 1867 3.9 21:00:25 10° S 21:05:29 42° ESE 21:10:36 10° NE
CENTAUR R/B 3.6 21:04:46 19° ESE 21:05:58 20° ESE 21:10:36 10° ENE
Cosmos 1707 Rocket 3.8 21:04:55 10° NNW 21:09:15 69° W 21:12:53 14° S
Resurs 01 Rocket 2.6 21:05:36 10° S 21:09:49 44° W 21:14:05 10° NNW
FALCON 9 DEB 3.5 21:09:00 10° SW 21:12:19 42° SE 21:15:22 12° ENE
Landsat 7 3.8 21:08:59 18° SSE 21:12:30 89° ENE 21:17:18 10° NNW
Cosmos 1441 Rocket 4.4 21:10:10 10° SSW 21:13:49 43° WNW 21:17:26 10° N
deb Kosmos-1763 4.0 21:14:16 21° S 21:16:31 56° ESE 21:20:06 10° NNE
Cosmos 676 Rocket 4.1 21:14:02 11° S 21:19:04 56° ESE 21:24:16 10° NNE
IGS 5A 3.6 21:17:35 21° S 21:20:18 73° WSW 21:24:28 10° NNW
ATLAS 5 CENTAUR R/B 3.7 21:18:29 10° N 21:20:20 17° NE 21:23:23 10° E
Cosmos 192 4.4 21:15:28 10° NNW 21:20:23 68° ENE 21:22:57 28° SE
Meteor 1-25 Rocket 4.4 21:17:53 20° SSE 21:21:34 53° E 21:27:01 10° NNE
Cosmos 1470 Rocket 3.7 21:19:31 25° SSE 21:21:51 54° E 21:26:09 10° NNE
Cosmos 1934 Rocket 4.0 21:17:27 10° S 21:23:49 89° W 21:30:15 10° N
Aureole 1 Rocket 4.3 21:18:08 10° S 21:24:50 74° ESE 21:33:03 10° NNE
Cosmos 2360 4.4 21:20:09 10° NNW 21:25:52 68° WSW 21:29:32 23° S
Shenzhou-11 Module 4.0 21:24:43 10° WSW 21:25:14 13° SW 21:25:14 13° SW
GP-B 3.1 21:23:16 10° N 21:27:44 86° W 21:30:41 21° S
NOSS 3-2 (A) 3.5 21:26:01 10° SSW 21:31:26 49° ESE 21:37:37 10° NE
USA 267 3.4 21:26:26 10° NE 21:33:00 79° NNW 21:39:32 10° WSW
Cosmos 921 Rocket 3.0 21:29:11 10° NNW 21:33:24 63° ENE 21:34:51 38° SE
Cosmos 1862 Rocket 3.7 21:31:20 10° NNW 21:35:49 74° W 21:38:10 27° S
NOSS 3-2 (C) 3.9 21:35:51 29° SSE 21:37:32 34° ESE 21:43:10 10° NE
ERS-1 Rocket 2.9 21:36:08 29° SSE 21:38:44 86° ENE 21:43:47 10° NNW
OPS 6432 4.4 21:35:10 10° SW 21:39:23 89° SE 21:42:38 10° NE
SAR-Lupe-2 3.5 21:37:40 10° NNE 21:41:15 64° ESE 21:41:55 51° SSE
SL-16 R/B 3.0 21:36:13 10° NNW 21:41:37 41° NE 21:44:17 26° ESE
Lacrosse 5 2.5 21:37:36 10° NW 21:42:33 49° NNE 21:45:31 23° E
Cosmos 468 Rocket 4.3 21:38:22 10° NNW 21:43:38 56° ENE 21:45:45 34° SE
Cosmos 1954 Rocket 4.1 21:47:03 10° SSW 21:52:22 82° WNW 21:57:44 10° NNE
Cosmos 2082 Rocket 2.5 21:46:46 10° SW 21:52:28 71° WNW 21:58:09 10° NNE
Meteor 1-4 Rocket 4.3 21:52:07 10° NW 21:55:05 26° W 21:56:38 19° SW
Cosmos 1184 Rocket 3.8 21:53:56 26° SW 21:55:23 44° WNW 21:58:34 10° N
Cosmos 2278 4.3 21:50:15 10° NW 21:55:46 51° WSW 21:58:39 27° S
CARTOSAT-1 3.9 21:57:12 35° SSW 21:58:50 59° W 22:03:07 10° NNW
Terra 1.7 22:00:02 43° SSE 22:01:36 89° E 22:06:24 10° NNW
Cosmos 1933 Rocket 3.6 22:01:23 38° SSW 22:03:04 81° W 22:07:32 10° N
Cosmos 2322 Rocket 2.7 21:58:31 10° NNW 22:04:02 49° NE 22:06:13 33° ESE
Okean 1 3.4 22:02:14 10° NNW 22:06:17 73° W 22:07:06 53° SSW
Cosmos 1238 Rocket 3.0 22:06:54 42° W 22:07:11 44° W 22:10:02 10° N
Cosmos 2100 Rocket 4.1 22:05:36 38° SE 22:07:39 54° E 22:13:36 10° NNE
Cosmos 1602 3.8 22:06:47 50° SSW 22:07:41 75° W 22:11:38 10° N
USA 234 3.5 22:06:06 34° SSE 22:08:52 55° SW 22:15:18 10° WNW
Cosmos 1437 Rocket 2.5 22:06:48 10° N 22:10:38 85° E 22:10:50 78° SE
Cosmos 1605 Rocket 4.3 22:05:45 16° SSW 22:10:42 63° WNW 22:16:46 10° N
Cosmos 1869 Rocket 3.7 22:13:01 52° ESE 22:13:14 52° E 22:17:35 10° NNE
SPOT 5 3.3 22:15:08 35° SW 22:16:26 46° W 22:20:38 10° NNW
Cosmos 2360 Rocket 3.2 22:12:54 10° NNW 22:18:09 37° NE 22:20:20 27° E
JB-3 4.2 22:16:34 10° NNE 22:20:34 78° E 22:20:44 76° SE
ATLAS 3B R/B 3.6 22:21:12 27° ESE 22:21:12 27° ESE 22:26:03 10° ENE
Iridium 4 Rocket 3.1 22:21:45 58° ESE 22:21:57 59° E 22:26:07 10° N
Geosat 4.2 22:20:48 44° ESE 22:22:10 60° NE 22:27:09 10° NNW
Meteor 1-19 Rocket 4.3 22:17:18 10° NNW 22:22:41 66° W 22:24:35 40° SSW
Cosmos 2173 Rocket 4.0 22:21:11 43° SSE 22:23:10 66° E 22:29:15 10° NNE
Cosmos 1703 Rocket 3.7 22:19:10 10° NNW 22:23:30 65° W 22:24:15 54° SSW
Cosmos 2242 Rocket 4.3 22:19:30 10° NNW 22:23:48 48° W 22:24:58 37° SW
Cosmos 1500 3.5 22:25:10 54° NE 22:25:10 54° NE 22:28:20 10° NNE
Cosmos 405 Rocket 3.6 22:24:28 35° WSW 22:25:23 43° WNW 22:28:58 10° N
SL-4 R/B 2.1 22:22:19 10° W 22:26:06 61° NNW 22:27:13 39° NE
Cosmos 1980 Rocket 3.4 22:21:35 10° NW 22:26:36 33° WSW 22:28:51 24° SW
USA 238 DEB 3.7 22:20:44 10° SW 22:27:23 82° NW 22:34:21 10° NE
USA 238 3.7 22:20:51 10° SW 22:27:30 82° NW 22:34:27 10° NE
ALOS 2 4.2 22:27:44 22° ENE 22:28:16 23° ENE 22:31:41 10° NNE
Cosmos 1763 Rocket 3.6 22:24:34 10° NNW 22:29:54 73° WSW 22:31:09 52° S
Meteor 1-14 Rocket 4.4 22:29:24 32° SSW 22:32:13 73° WNW 22:38:11 10° N
Cosmos 1536 4.3 22:34:39 26° ENE 22:34:39 26° ENE 22:37:10 10° NNE
Cosmos 1666 4.0 22:37:32 29° NE 22:37:32 29° NE 22:39:52 10° NNE
Cosmos 2333 Rocket 3.9 22:33:37 10° N 22:38:24 26° NE 22:41:19 18° E
Cosmos 2016 Rocket 4.1 22:39:51 48° SE 22:41:24 62° E 22:47:41 10° NNE
Meteor 1-5 Rocket 4.3 22:40:38 51° S 22:42:11 77° E 22:48:09 10° NNE
Meteor 1-13 Rocket 4.1 22:36:48 10° N 22:42:21 71° ENE 22:43:23 57° SE
Cosmos 2061 Rocket 4.0 22:41:22 50° SE 22:42:48 63° E 22:48:54 10° NNE
Cosmos 1459 Rocket 3.9 22:42:35 44° S 22:44:47 89° W 22:51:12 10° N
Okean 1-7 3.8 22:40:41 10° NNW 22:44:48 43° W 22:45:21 41° WSW
MOS 1-B Rocket 3.7 22:39:58 10° NNE 22:45:41 69° ESE 22:46:44 56° SSE
Cosmos 2221 Rocket 3.6 22:42:01 10° N 22:46:28 67° E 22:46:28 67° E
FALCON 9 DEB 4.3 22:45:57 10° W 22:48:50 42° NW 22:48:50 42° NW
Cosmos 1733 Rocket 3.9 22:50:59 39° ENE 22:50:59 39° ENE 22:54:29 10° NNE
Okean 3 3.4 22:46:19 10° N 22:50:30 85° N 22:50:30 85° N
SL-27 R/B 3.7 22:53:09 36° N 22:53:09 36° N 22:55:18 10° NNE
Cosmos 1864 Rocket 4.5 22:53:23 54° SE 22:54:36 66° E 23:00:47 10° NNE
CENTAUR R/B 2.5 22:51:50 26° SW 22:55:31 85° NW 23:02:44 10° NE
Cosmos 1850 Rocket 4.5 22:54:34 33° SW 22:56:48 59° WNW 23:02:02 10° NNE
Thor Agena Rocket 3.5 22:51:51 10° NNE 22:56:54 60° ESE 22:57:00 60° ESE
Cosmos 967 Rocket 4.4 22:53:03 10° NW 22:59:28 83° NE 23:01:03 54° SE
Meteor 2-4 Rocket 4.1 22:54:09 10° NNW 22:59:41 54° W 23:00:58 44° SW
Cosmos 1802 Rocket 4.0 22:58:40 47° SSW 23:00:41 83° W 23:07:06 10° N
Cosmos 44 3.2 22:56:20 10° NW 23:01:15 88° SW 23:01:33 80° SSE
Spot 4 3.7 23:06:33 82° SSW 23:06:45 86° WSW 23:11:36 10° NNW
Cosmos 2346 Rocket 4.4 23:03:53 10° NNW 23:09:58 77° W 23:11:12 57° SSW
Cosmos 2233 Rocket 4.1 23:14:31 54° SE 23:15:28 61° E 23:21:43 10° NNE
USA 267 4.4 23:09:29 10° NE 23:15:35 43° NNW 23:21:41 10° W
Cosmos 841 Rocket 3.9 23:16:49 10° NNW 23:21:51 49° WSW 23:22:05 49° WSW
Cosmos 540 Rocket 3.9 23:18:02 10° NNW 23:23:02 49° WSW 23:23:10 49° WSW
Cosmos 1816 Rocket 4.5 23:19:08 10° NNW 23:25:25 73° W 23:26:36 58° SSW
Lacrosse 5 2.6 23:20:41 10° WNW 23:24:41 42° WSW 23:24:41 42° WSW
SL-16 R/B 3.0 23:20:30 10° NW 23:25:40 37° WSW 23:26:08 36° WSW
NOSS 3-2 (C) 4.1 23:23:11 14° WSW 23:28:05 54° NW 23:34:42 10° NE
Cosmos 2322 3.9 23:22:58 10° NNW 23:28:38 63° ENE 23:29:31 55° ESE
Cosmos 1833 4.1 23:28:44 68° ESE 23:28:48 68° ESE 23:34:26 10° NNE
Cosmos 1378 Rocket 3.9 23:24:51 10° N 23:28:49 62° NE 23:28:49 62° NE
Cosmos 2084 Rocket 4.0 23:35:30 55° NW 23:35:30 55° NW 23:39:39 10° NE
Cosmos 2219 Rocket 2.7 23:31:34 10° NNW 23:37:08 52° ENE 23:38:19 45° E
Tsikada Rocket 4.1 23:32:16 10° NNW 23:38:36 66° W 23:39:45 56° SW
Terra 4.2 23:38:55 11° W 23:40:02 12° W 23:41:44 10° WNW
EO 1 Del DPAF 4.3 23:37:05 10° N 23:39:56 43° NNW 23:39:56 43° NNW
Cosmos 2237 4.4 23:36:49 10° NW 23:42:23 55° WSW 23:42:34 55° WSW
Cosmos 1975 Rocket 4.3 23:38:32 10° N 23:42:25 33° ENE 23:42:25 33° ENE
Cosmos 2333 4.1 23:37:14 10° NNW 23:43:05 80° ENE 23:43:44 70° ESE
Cosmos 1242 Rocket 4.2 23:43:59 10° NNW 23:46:08 31° NW 23:46:08 31° NW
Cosmos 2322 Rocket 3.3 23:42:58 10° NW 23:47:52 30° WSW 23:48:00 30° WSW
Helios 1A 3.7 23:49:48 50° NE 23:49:48 50° NE 23:53:22 10° N
Cosmos 1486 Rocket 4.0 23:52:11 72° E 23:52:11 72° E 23:57:09 10° NNE
Meteor 1-11 Rocket 4.5 23:51:38 38° WSW 23:52:59 45° WNW 23:58:29 10° N
